Vertical_Velocity
-1 1 4 4 4 4 4 4 3 2 1 1 0 0 0 1 -0 -1 -3 -4 -4 -2 -0 0 0 0 0 -0 0 1 2 4 6 8 10 12 14 15 15 14 15 17 18 18 16 15 13 11 8 4 -0 -4 -4 -2 1 3 3 2 2 1 2 2 2 2 1 0 0 0 1
-3 -3 -1 3 5 6 6 5 3 2 1 0 0 1 1 1 -0 -1 -3 -4 -4 -2 -1 -2 -2 -2 -2 -3 -3 -3 -1 0 4 6 6 5 4 4 4 5 4 4 5 9 11 12 11 8 4 -1 -6 -8 -4 -2 -0 1 2 2 2 1 1 1 1 0 -0 -0 1 2 4
-14 -13 -6 4 6 6 6 4 3 1 0 -0 1 1 0 -1 -1 -2 -3 -5 -4 -3 -2 -2 -1 0 2 1 -0 -2 -2 -2 -0 -0 -1 -3 -3 -4 -3 -0 -2 -6 -9 -8 -2 2 5 5 2 -1 -3 -2 -0 1 2 2 3 3 2 0 0 1 1 -0 -0 0 1 0 1
-19 -15 -5 5 6 5 4 3 3 2 1 0 1 0 -1 -2 -2 -3 -3 -4 -4 -3 -2 -0 3 6 8 8 6 5 4 3 2 0 -1 -2 -2 -4 -7 -9 -10 -9 -10 -13 -8 -2 3 6 3 2 2 3 4 5 5 4 3 2 1 0 0 1 1 0 1 1 1 1 0
-9 -6 -0 4 4 4 4 3 3 2 1 1 1 0 -1 -3 -3 -2 -2 -1 -1 -1 -0 2 2 1 0 1 1 3 6 8 8 5 1 -2 0 -2 -8 -15 -13 -11 -8 -7 -3 2 5 6 4 4 4 5 5 4 3 1 1 0 -1 -1 0 1 1 1 1 2 2 1 1
-1 -0 2 3 4 4 3 3 2 1 1 1 1 -0 -1 -2 -2 -1 -0 1 1 1 -0 -3 -12 -17 -19 -19 -16 -12 -8 -4 -3 -3 -3 1 2 -2 -6 -10 -11 -8 -4 -2 3 7 7 6 5 4 4 3 2 1 -0 -1 -1 -1 -1 -1 0 1 1 0 0 1 2 1 1
1 1 2 3 3 3 3 2 1 1 1 1 0 -0 -1 -1 -0 0 1 2 3 1 -2 -8 -16 -18 -17 -14 -11 -10 -11 -11 -10 -8 -5 -2 -4 -7 -9 -8 -5 -2 2 5 5 5 4 4 4 3 2 1 1 0 -0 -0 -0 -0 -0 0 1 2 2 0 0 1 1 0 0
2 2 2 2 3 3 3 1 1 1 1 0 0 -0 -0 -0 0 1 2 3 2 -0 -3 -5 -5 -4 -2 2 0 -1 -1 -1 -5 -7 -7 -6 -8 -9 -8 -6 -1 2 4 4 4 4 3 4 3 2 0 0 0 0 0 0 0 0 0 0 2 3 3 2 2 1 1 0 0
2 2 3 3 4 3 2 -1 -1 -0 -0 -0 -0 -0 -0 0 1 2 3 2 -1 -2 -2 -2 -1 1 2 4 2 1 0 -2 -5 -6 -5 -3 -1 -0 1 2 3 4 5 7 7 6 4 3 2 1 0 0 0 0 0 0 0 -0 -0 -0 1 2 3 3 3 2 2 1 1
1 1 2 3 3 1 -0 -1 -1 -1 -1 -1 -0 -0 0 1 2 1 0 -1 -2 -2 -1 -1 -1 0 2 3 4 4 4 3 3 4 6 7 6 6 6 7 8 9 8 7 6 4 2 1 0 -0 -0 -0 -0 -0 -0 0 0 -0 -1 -1 -0 0 1 2 2 2 2 1 1
1 2 2 1 1 -0 -1 -1 -1 -1 -0 -0 -0 -0 0 1 1 -0 -2 -2 -1 -1 -1 -1 1 1 2 3 5 6 7 8 8 8 8 7 7 7 8 8 8 8 6 4 2 1 -0 -1 -1 -1 -1 -1 -1 -1 -1 -0 -0 -1 -1 -1 -1 -1 -1 -0 1 2 1 1 0
3 2 1 0 -0 -0 0 0 -0 0 1 1 0 -1 -2 -1 -1 -1 -1 -0 -0 -1 -1 -0 1 2 3 3 4 4 5 5 5 6 6 6 6 6 6 6 5 4 2 1 -0 -1 -1 -2 -2 -2 -1 -1 -0 -0 -1 -1 -1 -1 -2 -1 -1 -1 -1 -1 1 1 1 0 -0
2 2 1 1 1 2 2 2 1 1 2 2 0 -2 -3 -2 -1 -0 1 1 0 -0 -0 0 1 2 2 2 2 2 2 2 2 2 2 2 2 2 2 1 1 0 -0 -1 -1 -1 -1 -2 -2 -2 -2 -1 -0 0 -0 -1 -1 -2 -2 -1 -1 -1 -1 -1 -0 0 0 -0 -1
2 2 2 3 3 3 3 3 2 2 1 1 0 -1 -2 -3 -2 0 2 2 2 1 1 1 2 2 1 1 0 -0 -0 -0 0 -0 -0 -0 -0 -0 -1 -1 -1 -1 -1 -1 -1 -1 -1 -1 -1 -1 -1 -1 -0 0 0 -0 -1 -1 -1 -1 -1 -1 -1 -1 -0 -0 -1 -1 -1
3 3 3 3 3 2 2 2 2 1 1 1 -0 -2 -4 -5 -3 -1 2 4 3 3 2 2 2 1 1 0 -0 -1 -1 -1 -1 -1 -1 -1 -1 -1 -1 -1 -1 -1 -1 -1 -1 -1 -0 -0 -1 -1 -1 -1 -1 -0 0 0 0 0 -0 -1 -1 -1 -1 -0 -0 -0 -1 -1 -2
2 2 1 1 1 1 1 1 1 1 1 0 -1 -3 -4 -4 -2 0 3 5 4 3 3 3 2 1 1 0 0 -0 -0 -0 -0 -0 -1 -1 -1 -1 -1 -1 -1 -1 -2 -2 -1 -1 -1 -0 -1 -1 -1 -1 -1 -0 -0 0 0 0 0 0 -0 -0 -0 0 -0 -0 -1 -1 -2
0 0 -0 -0 -0 -0 -0 -0 0 1 1 1 1 1 1 3 4 5 6 5 4 3 2 2 2 1 1 1 0 0 1 1 0 0 -0 -1 -1 -1 -1 -1 -1 -2 -2 -2 -2 -1 -1 -1 -1 -1 -1 -1 -1 -1 -0 0 0 0 0 0 0 0 0 0 0 -0 -1 -1 -2
0 0 -0 -0 -0 -0 -0 0 1 2 2 3 3 4 5 6 6 5 4 3 2 2 1 1 1 1 1 0 -0 0 1 1 0 -0 -1 -1 -0 -0 -0 -1 -1 -1 -2 -2 -2 -1 -1 -1 -1 -1 -1 -1 -1 -0 -0 -0 -0 -0 -0 -0 0 0 0 0 0 -0 -0 -1 -1
1 1 1 1 1 1 1 1 2 2 2 3 3 3 3 3 2 2 1 1 1 0 0 -0 -0 -0 -0 -0 -0 -0 -0 0 -0 -1 -1 -1 -1 -1 -1 -1 -1 -1 -1 -1 -1 -1 -1 -1 -1 -1 -0 -0 -0 -0 -0 -0 -1 -1 -0 -0 0 0 0 0 -0 -0 -0 -0 -0
1 1 1 1 1 1 1 1 1 1 1 1 1 1 0 0 -0 -0 -0 -0 -0 -0 -0 -0 -1 -0 -0 -0 -0 -1 -1 -1 -1 -1 -2 -2 -2 -2 -2 -1 -1 -1 -1 -1 -1 -1 -1 -1 -1 -1 -0 -1 -0 -0 -0 -1 -1 -0 -0 -0 -0 -0 -0 -0 -0 -0 -0 -0 -0
0 0 0 0 0 1 1 1 0 0 0 -0 -0 -1 -1 -1 -1 -1 -1 -1 -1 -1 -0 -0 -0 -0 -0 -0 -0 -1 -1 -2 -0 -1 -1 -2 -2 -2 -2 -1 -1 -1 -1 -1 -1 -1 -1 -1 -1 -1 -1 -1 -1 -1 -1 -1 -1 -0 -0 -0 -1 -1 -1 -1 -1 -1 -1 -1 -1
-0 -0 -0 -0 0 0 0 0 0 -0 -0 -1 -1 -1 -1 -1 -1 -1 -1 -1 -1 -0 -0 -0 -0 -0 -0 -0 -0 -0 -1 -1 -0 -0 -1 -1 -1 -2 -2 -1 -1 -1 -1 -1 -1 -1 -1 -2 -1 -1 -1 -1 -1 -1 -1 -1 -1 -1 -1 -1 -1 -1 -1 -1 -1 -1 -1 -1 -0
-0 -0 -0 0 0 0 0 0 -0 -0 -0 -0 -0 -0 -1 -1 -1 -0 -0 -0 -0 -0 -0 -0 -0 -0 -0 -0 0 0 -0 -0 -0 -1 -1 -1 -1 -2 -2 -2 -2 -2 -2 -1 -1 -2 -2 -2 -2 -1 -1 -1 -1 -1 -2 -2 -2 -2 -2 -1 -1 -1 -1 -1 -1 -1 -1 -1 -1
-0 0 0 0 0 0 0 -0 -0 -0 -0 -0 -0 -0 -0 -0 -0 0 0 0 -0 -0 -0 -0 -0 -0 -0 -0 0 -0 -0 -1 -1 -1 -1 -2 -2 -2 -2 -2 -2 -2 -2 -1 -1 -2 -2 -2 -2 -1 -1 -1 -1 -1 -1 -1 -0 -0 -1 -1 -1 -1 -1 -1 -1 -1 -1 -2 -2
0 0 0 0 0 0 -0 -0 -0 -0 -0 0 0 0 0 -0 0 0 0 0 -0 -0 -0 -0 -0 -0 -0 -0 -0 -1 -1 -1 -1 -2 -2 -2 -2 -2 -2 -3 -2 -2 -2 -2 -2 -1 -1 -1 -1 -1 -1 -2 -1 -1 0 2 2 1 -0 -2 -2 -2 -1 -1 0 -0 -1 -2 -2
0 0 0 0 0 -0 -0 -0 -0 0 0 1 1 0 -0 -1 -0 0 0 -0 -0 -0 -0 -0 -1 -1 -1 -1 -1 -1 -1 -2 -2 -2 -2 -2 -2 -2 -2 -2 -2 -2 -2 -2 -2 -2 -2 -2 -2 -2 -2 -2 -1 -0 1 1 1 0 -1 -1 -1 -0 0 1 0 -0 -1 -1 -1
1 0 0 0 0 0 0 0 0 0 1 2 1 -0 -1 -2 -1 -0 0 -0 -0 -0 -0 -0 -1 -1 -1 -1 -1 -1 -1 -2 -2 -2 -2 -2 -2 -1 -1 -1 -2 -2 -2 -2 -2 -2 -2 -2 -2 -2 -1 -1 -1 -0 -1 -1 -1 -1 -1 -1 0 1 2 2 0 -0 -0 -0 -0
1 1 0 0 0 0 0 0 0 0 1 1 0 -1 -2 -2 -1 -0 0 -0 -0 -0 -0 -1 -1 -1 -1 -1 -1 -1 -1 -1 -1 -1 -1 -2 -2 -1 -1 -1 -2 -2 -2 -2 -2 -2 -2 -2 -2 -2 -2 -1 -0 0 1 0 -0 -1 -1 -0 1 2 1 0 -0 -1 -1 -0 -0
1 0 0 0 0 0 0 -0 -0 -0 -0 -0 -1 -2 -2 -2 -1 0 0 0 -0 -0 -1 -1 -1 -1 -1 -2 -2 -2 -2 -2 -2 -2 -2 -1 -1 -1 -1 -1 -1 -1 -0 -0 -1 -1 -1 -1 -1 -2 -2 -2 -1 1 2 1 0 -0 -1 0 1 1 1 0 -0 -0 0 1 0
0 0 -0 -0 -0 -0 -0 -0 -1 -1 -1 -1 -1 -2 -2 -1 -1 -0 0 0 -0 -1 -1 -1 -1 -1 -1 -1 -1 -2 -2 -2 -1 -1 -1 -1 -1 -1 -1 -1 -0 0 1 0 -0 -1 -1 -1 -1 -2 -2 -3 -2 -1 0 1 0 -0 -1 -1 0 1 1 1 1 1 0 0 0
-0 -0 -0 -1 -1 -1 -1 -0 -1 -1 -1 -2 -2 -1 -1 -1 -1 -0 -0 -0 -1 -1 -1 -1 -1 -1 -1 -1 -1 -1 -1 -1 -1 -1 -1 -2 -2 -2 -2 -2 -1 -0 0 -0 -1 -1 -2 -2 -2 -2 -2 -2 -3 -2 -1 0 0 0 -0 -1 -0 1 2 2 1 0 0 -0 -0
-1 -1 -1 -1 -1 -1 -1 -1 -1 -1 -1 -2 -1 -1 -1 -1 -0 -1 -1 -1 -1 -1 -1 -1 -1 -1 -1 -1 -1 -1 -2 -2 -3 -3 -3 -3 -3 -3 -3 -3 -2 -2 -1 -1 -2 -2 -2 -2 -2 -2 -2 -2 -2 -2 -1 -1 -0 -0 -1 -1 -1 0 1 1 0 0 0 0 -0
-1 -1 -1 -1 -1 -1 -1 -2 -2 -1 -1 -1 -1 -1 -0 -0 -1 -1 -1 -1 -1 -2 -1 -1 -1 -1 -1 -1 -2 -2 -3 -3 -4 -4 -4 -3 -3 -3 -3 -3 -3 -2 -2 -2 -2 -2 -2 -3 -2 -2 -2 -2 -2 -1 -1 -1 -1 -1 -1 -1 -1 -0 0 -0 -0 -0 0 0 -0
-1 -1 -2 -2 -2 -2 -2 -2 -2 -1 -1 -1 -0 -0 -0 -0 -1 -1 -1 -1 -2 -2 -2 -2 -1 -1 -2 -2 -3 -3 -3 -3 -2 -2 -2 -2 -2 -3 -3 -2 -2 -2 -2 -2 -2 -2 -2 -2 -2 -1 -1 -1 -1 -1 -1 -1 -2 -2 -2 -1 -1 -0 -0 -0 -0 0 0 0 -0
-1 -1 -1 -2 -2 -2 -2 -2 -2 -1 -1 -1 -0 -0 -0 -0 -1 -1 -1 -1 -1 -2 -2 -2 -2 -2 -2 -3 -3 -2 -2 -1 -1 -1 -1 -2 -2 -2 -2 -2 -2 -2 -1 -1 -1 -2 -2 -2 -2 -1 -1 -1 -0 -1 -1 -1 -2 -2 -2 -1 -1 -0 -0 0 0 0 0 -0 -0
-1 -1 -1 -1 -1 -1 -1 -2 -1 -1 -1 -0 0 0 -0 -0 -0 -0 -1 -1 -1 -1 -2 -2 -2 -2 -2 -2 -2 -1 -1 -1 -1 -1 -1 -1 -2 -2 -2 -2 -1 -1 -1 -1 -1 -2 -2 -2 -1 -1 -1 -1 -0 -0 -1 -1 -1 -2 -2 -1 -1 -0 0 0 1 0 0 -0 0
-0 -0 -0 -0 -0 -1 -1 -1 -1 -1 -0 0 0 0 0 -0 -0 -0 -1 -1 -1 -1 -2 -2 -2 -2 -2 -1 -1 -0 -0 -0 -0 -1 -1 -1 -1 -2 -2 -1 -1 -1 -1 -1 -2 -2 -2 -2 -1 -1 -1 -1 -0 -0 -0 -1 -1 -1 -1 -1 -0 -0 0 1 1 0 0 0 0
-0 -0 -0 -0 0 -0 -1 -1 -1 -1 -0 1 1 1 0 0 -0 -0 -1 -1 -1 -1 -2 -2 -2 -1 -1 -0 -0 -0 -0 -0 -0 -1 -1 -1 -1 -1 -2 -2 -1 -1 -1 -1 -2 -2 -2 -1 -1 -1 -1 -1 -0 -0 0 -0 -0 -1 -1 -1 -0 0 1 1 1 0 0 0 1
-0 -0 -0 -0 0 0 0 -1 -1 -0 0 1 1 1 0 0 0 0 -0 -1 -1 -1 -1 -1 -1 -0 0 -0 -0 -0 -0 -0 -1 -1 -1 -1 -1 -1 -1 -2 -1 -0 -0 -1 -1 -1 -2 -1 -1 -1 -1 -1 -0 -0 0 0 0 0 -0 -0 0 1 1 1 1 1 1 1 1
-0 -0 -0 -0 0 0 0 -0 -0 -0 0 0 0 1 1 0 0 0 0 -0 -1 -1 -1 -1 -0 0 0 -0 -0 -0 -1 -0 -1 -1 -1 -1 -1 -1 -1 -1 -1 -0 0 -0 -1 -1 -1 -1 -1 -0 -0 -1 -1 -0 -0 0 0 0 0 0 0 0 1 1 1 1 1 1 0
0 -0 -0 -0 -0 0 0 0 -0 -0 -0 0 0 1 1 1 0 0 0 0 -0 -1 -1 -1 -0 0 0 -0 -0 -1 -1 -0 -0 -1 -1 -1 -1 -1 -1 -1 -1 -0 -0 -0 -0 -1 -1 -1 -0 -0 -0 -1 -1 -1 -0 0 0 1 1 1 0 0 0 1 1 1 1 0 0
Height
1514 1516 1517 1518 1519 1519 1520 1521 1522 1523 1523 1524 1524 1524 1525 1525 1526 1527 1528 1529 1529 1530 1530 1530 1531 1531 1531 1531 1532 1532 1532 1533 1534 1534 1534 1535 1534 1534 1534 1535 1535 1535 1535 1535 1535 1534 1534 1534 1534 1535 1536 1537 1537 1538 1539 1540 1540 1540 1540 1539 1539 1539 1539 1539 1539 1539 1539 1538 1539
1514 1515 1516 1517 1518 1519 1519 1520 1521 1521 1522 1522 1523 1524 1524 1524 1525 1526 1527 1528 1529 1529 1529 1530 1530 1530 1530 1530 1530 1531 1532 1532 1533 1533 1534 1534 1534 1534 1534 1535 1535 1535 1535 1534 1534 1534 1533 1532 1532 1533 1534 1535 1536 1537 1537 1538 1538 1538 1538 1537 1537 1537 1537 1537 1537 1537 1537 1537 1537
1513 1514 1515 1516 1517 1518 1519 1519 1520 1520 1521 1521 1522 1523 1524 1524 1525 1525 1526 1527 1528 1528 1529 1529 1529 1529 1530 1530 1530 1530 1530 1531 1531 1532 1532 1533 1533 1534 1534 1534 1534 1534 1534 1534 1534 1533 1532 1531 1531 1531 1532 1533 1534 1535 1536 1536 1536 1536 1535 1535 1535 1535 1535 1534 1534 1534 1534 1534 1534
1511 1512 1514 1515 1516 1517 1517 1518 1519 1519 1519 1520 1521 1522 1523 1524 1524 1525 1526 1526 1527 1527 1528 1528 1529 1529 1529 1529 1529 1529 1529 1529 1530 1530 1530 1531 1532 1532 1533 1533 1533 1534 1534 1533 1533 1532 1532 1530 1531 1531 1532 1533 1533 1534 1534 1534 1534 1534 1534 1534 1534 1533 1533 1533 1533 1533 1532 1532 1532
1509 1510 1512 1514 1515 1516 1516 1517 1518 1518 1519 1519 1520 1521 1522 1523 1524 1524 1525 1526 1526 1526 1527 1527 1528 1528 1528 1528 1529 1529 1529 1529 1529 1529 1529 1529 1530 1530 1531 1531 1532 1532 1532 1531 1531 1531 1531 1531 1531 1531 1531 1532 1532 1532 1532 1532 1532 1532 1532 1532 1532 1532 1531 1531 1531 1531 1530 1530 1530
1508 1509 1511 1512 1514 1514 1515 1516 1517 1517 1518 1519 1519 1520 1521 1522 1523 1524 1524 1525 1525 1526 1526 1526 1527 1528 1528 1528 1528 1529 1529 1528 1528 1528 1528 1528 1528 1528 1529 1530 1530 1530 1530 1531 1531 1531 1530 1530 1530 1530 1530 1530 1530 1530 1530 1530 1530 1530 1530 1530 1530 1530 1529 1529 1529 1529 1529 1528 1528
1508 1509 1510 1511 1512 1513 1514 1515 1515 1516 1517 1518 1519 1519 1521 1521 1522 1523 1524 1524 1524 1524 1525 1526 1527 1527 1527 1527 1528 1528 1529 1528 1528 1527 1527 1527 1527 1527 1528 1528 1529 1529 1530 1530 1530 1529 1529 1529 1528 1528 1528 1528 1528 1528 1528 1528 1528 1527 1528 1528 1528 1528 1527 1527 1527 1527 1526 1526 1525
1508 1508 1509 1510 1511 1512 1513 1514 1514 1515 1516 1517 1518 1519 1519 1520 1521 1522 1522 1523 1523 1523 1524 1525 1525 1526 1525 1526 1526 1527 1527 1527 1526 1526 1526 1525 1525 1526 1527 1528 1529 1529 1529 1529 1528 1527 1527 1527 1526 1526 1526 1526 1525 1525 1525 1525 1525 1525 1525 1525 1525 1525 1525 1525 1524 1524 1524 1523 1523
1506 1507 1508 1509 1510 1511 1512 1513 1514 1514 1515 1516 1517 1518 1518 1519 1519 1520 1520 1521 1521 1522 1523 1523 1524 1524 1524 1524 1524 1525 1525 1525 1525 1525 1525 1524 1524 1525 1526 1526 1527 1527 1526 1526 1525 1525 1524 1524 1524 1524 1524 1524 1523 1523 1523 1523 1523 1523 1523 1523 1523 1523 1523 1522 1522 1521 1521 1521 1520
1505 1506 1507 1508 1509 1510 1511 1512 1513 1514 1514 1515 1515 1516 1517 1517 1518 1518 1519 1519 1520 1520 1521 1521 1522 1522 1523 1523 1523 1523 1523 1523 1523 1523 1522 1522 1523 1523 1524 1524 1524 1524 1524 1523 1523 1522 1522 1522 1522 1521 1521 1521 1521 1521 1521 1521 1520 1520 1520 1520 1520 1520 1520 1520 1519 1519 1518 1518 1518
1505 1505 1506 1507 1508 1509 1510 1511 1512 1513 1513 1514 1514 1514 1515 1515 1516 1517 1518 1518 1519 1519 1519 1520 1520 1521 1521 1521 1521 1521 1521 1521 1521 1521 1520 1521 1521 1521 1521 1521 1521 1521 1521 1520 1520 1520 1520 1519 1519 1519 1519 1519 1519 1519 1518 1518 1518 1518 1518 1518 1518 1517 1517 1517 1517 1516 1515 1515 1514
1504 1504 1505 1506 1507 1509 1509 1510 1511 1512 1512 1513 1513 1513 1514 1514 1515 1516 1516 1517 1517 1518 1518 1519 1519 1519 1519 1520 1520 1519 1519 1519 1519 1519 1519 1519 1519 1519 1519 1519 1519 1519 1518 1518 1518 1518 1518 1517 1517 1517 1517 1517 1517 1516 1516 1516 1515 1515 1515 1515 1515 1514 1514 1514 1514 1513 1513 1512 1512
1503 1504 1505 1506 1507 1508 1509 1509 1510 1511 1511 1512 1512 1512 1513 1513 1514 1515 1515 1516 1516 1517 1517 1517 1518 1518 1518 1518 1518 1518 1517 1517 1517 1517 1517 1517 1517 1517 1517 1517 1517 1516 1516 1516 1516 1516 1515 1515 1515 1515 1515 1514 1514 1514 1514 1513 1513 1513 1513 1512 1512 1512 1511 1511 1511 1510 1510 1509 1509
1502 1503 1504 1505 1506 1507 1508 1508 1509 1509 1510 1510 1511 1511 1512 1512 1513 1514 1514 1515 1515 1515 1516 1516 1516 1516 1516 1515 1515 1515 1515 1515 1515 1515 1515 1515 1515 1515 1515 1514 1514 1514 1514 1514 1514 1514 1513 1513 1513 1513 1512 1512 1512 1512 1511 1511 1510 1510 1510 1509 1509 1509 1509 1508 1508 1508 1507 1507 1506
1502 1503 1504 1504 1505 1506 1506 1507 1508 1508 1509 1509 1510 1510 1511 1512 1512 1513 1514 1514 1514 1514 1514 1514 1514 1514 1514 1514 1513 1514 1514 1513 1513 1513 1513 1513 1513 1513 1513 1513 1512 1512 1512 1511 1511 1511 1511 1510 1510 1510 1509 1509 1509 1509 1509 1509 1508 1508 1507 1507 1506 1506 1506 1505 1505 1505 1504 1504 1504
1501 1502 1503 1503 1504 1504 1505 1506 1507 1507 1508 1508 1509 1509 1510 1511 1512 1513 1513 1513 1512 1512 1512 1512 1512 1512 1512 1512 1512 1512 1512 1512 1512 1512 1511 1511 1511 1511 1511 1510 1510 1509 1509 1509 1509 1508 1508 1508 1507 1507 1507 1507 1506 1506 1506 1506 1505 1505 1504 1504 1504 1504 1503 1503 1503 1502 1502 1502 1501
1500 1501 1501 1502 1503 1503 1504 1505 1505 1506 1507 1507 1508 1509 1509 1510 1511 1511 1511 1510 1510 1510 1510 1510 1510 1510 1510 1510 1510 1510 1510 1510 1510 1510 1509 1509 1509 1509 1509 1508 1508 1507 1507 1506 1506 1506 1506 1505 1505 1504 1504 1504 1504 1504 1503 1503 1503 1502 1502 1502 1501 1501 1501 1501 1500 1500 1500 1499 1499
1499 1499 1500 1501 1502 1502 1503 1504 1505 1505 1506 1507 1507 1508 1508 1508 1509 1509 1509 1509 1509 1509 1509 1509 1509 1509 1509 1509 1509 1509 1509 1508 1508 1508 1507 1507 1507 1507 1506 1506 1505 1505 1504 1504 1504 1504 1503 1503 1502 1502 1501 1501 1501 1501 1500 1500 1500 1500 1499 1499 1499 1499 1499 1498 1498 1498 1497 1497 1497
1498 1499 1499 1500 1501 1502 1503 1503 1504 1504 1505 1505 1506 1506 1506 1507 1507 1507 1507 1507 1507 1507 1507 1507 1507 1507 1507 1507 1507 1507 1506 1506 1506 1505 1505 1505 1505 1504 1504 1504 1503 1503 1502 1502 1501 1501 1501 1500 1500 1499 1499 1499 1498 1498 1498 1498 1497 1497 1497 1497 1497 1496 1496 1496 1496 1495 1495 1495 1494
1497 1498 1499 1499 1500 1501 1502 1502 1503 1503 1504 1504 1504 1505 1505 1505 1505 1505 1505 1505 1505 1506 1506 1506 1506 1506 1505 1505 1505 1505 1504 1504 1504 1504 1503 1503 1503 1502 1502 1501 1501 1500 1500 1499 1499 1499 1498 1498 1497 1497 1496 1496 1496 1495 1495 1495 1495 1495 1495 1494 1494 1494 1494 1494 1493 1493 1493 1493 1492
1497 1498 1499 1499 1500 1500 1501 1501 1502 1502 1503 1503 1503 1503 1503 1503 1504 1504 1504 1504 1504 1504 1504 1504 1504 1504 1504 1504 1503 1503 1503 1502 1502 1502 1501 1501 1500 1500 1499 1499 1498 1498 1497 1497 1496 1496 1495 1495 1494 1494 1494 1493 1493 1493 1493 1493 1493 1493 1492 1492 1492 1492 1492 1491 1491 1491 1491 1490 1490
1497 1497 1498 1499 1499 1500 1500 1500 1501 1501 1501 1501 1502 1502 1502 1502 1502 1502 1502 1503 1503 1503 1503 1503 1502 1502 1502 1502 1501 1501 1501 1500 1500 1499 1499 1499 1498 1497 1497 1496 1496 1495 1495 1494 1494 1493 1493 1492 1492 1492 1491 1491 1491 1491 1490 1490 1490 1490 1490 1490 1490 1490 1490 1489 1489 1489 1489 1489 1488
1496 1497 1498 1498 1499 1499 1499 1499 1499 1500 1500 1500 1500 1500 1501 1501 1501 1501 1501 1501 1501 1501 1501 1501 1501 1500 1500 1500 1499 1499 1499 1498 1498 1497 1497 1496 1496 1495 1494 1494 1493 1493 1493 1492 1492 1491 1491 1490 1490 1490 1489 1489 1489 1489 1489 1489 1489 1489 1489 1489 1489 1488 1488 1488 1488 1488 1487 1487 1487
1496 1496 1497 1497 1498 1498 1498 1498 1499 1499 1499 1499 1499 1499 1499 1499 1500 1500 1500 1500 1500 1499 1499 1499 1499 1499 1498 1498 1498 1497 1497 1496 1496 1495 1494 1494 1493 1493 1492 1491 1491 1491 1490 1490 1490 1489 1489 1489 1489 1488 1488 1488 1488 1488 1488 1488 1488 1488 1488 1487 1487 1487 1487 1487 1487 1486 1486 1486 1485
1495 1496 1496 1497 1497 1497 1498 1498 1498 1498 1498 1498 1498 1498 1498 1498 1499 1499 1499 1498 1498 1498 1498 1497 1497 1497 1496 1496 1495 1495 1494 1494 1494 1493 1492 1492 1491 1491 1490 1490 1489 1489 1489 1489 1488 1488 1488 1487 1487 1487 1487 1487 1487 1487 1487 1487 1487 1487 1486 1486 1486 1486 1486 1486 1485 1485 1485 1485 1485
1495 1495 1496 1496 1497 1497 1497 1497 1497 1497 1497 1497 1497 1497 1497 1497 1497 1497 1497 1497 1496 1496 1496 1495 1495 1495 1494 1494 1494 1493 1492 1492 1491 1491 1491 1490 1490 1489 1489 1489 1488 1488 1488 1487 1487 1487 1486 1486 1486 1486 1486 1486 1486 1486 1486 1486 1486 1485 1485 1485 1485 1485 1485 1485 1485 1484 1484 1484 1484
1495 1495 1495 1496 1496 1496 1496 1496 1496 1496 1496 1496 1496 1496 1496 1495 1495 1495 1495 1495 1495 1494 1494 1494 1494 1493 1493 1492 1492 1491 1491 1490 1490 1489 1489 1489 1489 1488 1488 1488 1487 1487 1486 1486 1485 1485 1485 1485 1484 1484 1484 1484 1484 1484 1484 1484 1484 1484 1484 1484 1484 1484 1484 1484 1484 1484 1484 1483 1483
1494 1495 1495 1495 1495 1495 1495 1495 1495 1495 1495 1495 1495 1494 1494 1494 1494 1494 1494 1494 1493 1493 1493 1492 1492 1491 1491 1490 1490 1489 1489 1489 1489 1488 1488 1488 1488 1487 1487 1487 1486 1486 1485 1485 1484 1484 1484 1483 1483 1483 1483 1483 1483 1484 1484 1483 1483 1483 1483 1483 1483 1483 1483 1483 1483 1483 1483 1482 1482
1494 1494 1494 1494 1494 1494 1494 1494 1494 1494 1494 1494 1494 1493 1493 1493 1493 1492 1492 1492 1492 1491 1491 1490 1490 1490 1489 1489 1489 1488 1488 1487 1487 1487 1487 1487 1487 1486 1486 1485 1485 1484 1484 1484 1483 1482 1482 1482 1482 1482 1482 1482 1482 1482 1482 1482 1482 1482 1482 1482 1482 1482 1482 1482 1482 1482 1482 1481 1481
1493 1493 1494 1494 1494 1494 1494 1493 1493 1493 1493 1492 1492 1492 1491 1491 1491 1491 1491 1490 1490 1490 1489 1489 1489 1488 1488 1488 1487 1487 1487 1486 1486 1486 1486 1486 1486 1485 1485 1484 1484 1484 1483 1482 1481 1481 1480 1480 1480 1480 1480 1480 1480 1481 1481 1481 1481 1481 1481 1481 1481 1481 1481 1481 1481 1480 1480 1480 1480
1492 1492 1493 1493 1493 1493 1492 1492 1492 1492 1491 1491 1490 1490 1490 1489 1489 1489 1489 1489 1489 1488 1488 1488 1487 1487 1487 1487 1487 1486 1486 1486 1486 1485 1485 1485 1485 1484 1484 1483 1483 1482 1482 1481 1480 1479 1479 1479 1478 1478 1478 1479 1479 1479 1479 1479 1479 1479 1480 1480 1480 1480 1480 1479 1479 1479 1479 1479 1479
1491 1491 1491 1491 1491 1491 1491 1491 1490 1490 1490 1489 1489 1489 1488 1488 1488 1488 1488 1487 1487 1487 1487 1486 1486 1486 1486 1486 1486 1485 1485 1485 1485 1484 1484 1484 1484 1483 1483 1482 1482 1481 1480 1480 1479 1479 1478 1477 1477 1476 1476 1477 1477 1477 1478 1478 1478 1478 1479 1479 1479 1479 1479 1479 1479 1479 1478 1478 1478
1490 1490 1490 1489 1489 1489 1489 1489 1489 1488 1488 1488 1487 1487 1487 1487 1487 1486 1486 1486 1486 1486 1485 1485 1485 1485 1485 1485 1485 1484 1484 1484 1484 1483 1483 1483 1482 1482 1481 1481 1480 1480 1479 1479 1478 1477 1477 1476 1475 1475 1475 1475 1475 1476 1476 1476 1476 1477 1477 1477 1477 1478 1478 1478 1477 1477 1477 1477 1477
1489 1488 1488 1488 1488 1488 1487 1487 1487 1486 1486 1486 1486 1485 1485 1485 1485 1485 1485 1485 1484 1484 1484 1484 1484 1484 1484 1484 1484 1484 1483 1483 1483 1482 1482 1482 1481 1481 1480 1480 1479 1479 1478 1478 1477 1476 1475 1475 1474 1474 1474 1474 1474 1474 1474 1475 1475 1475 1476 1476 1476 1476 1476 1476 1476 1476 1476 1476 1476
1487 1487 1487 1486 1486 1486 1485 1485 1485 1485 1484 1484 1484 1484 1484 1484 1484 1484 1484 1484 1484 1483 1483 1483 1483 1483 1483 1483 1483 1483 1482 1482 1482 1482 1481 1481 1480 1480 1479 1479 1478 1478 1477 1477 1476 1475 1475 1474 1474 1473 1473 1473 1473 1473 1473 1473 1474 1474 1474 1474 1475 1475 1475 1475 1475 1475 1475 1475 1475
1485 1485 1485 1485 1484 1484 1484 1483 1483 1483 1483 1483 1483 1483 1483 1483 1483 1483 1483 1483 1483 1482 1482 1482 1482 1482 1482 1482 1482 1482 1481 1481 1481 1481 1480 1480 1479 1479 1478 1478 1477 1477 1476 1476 1475 1474 1474 1474 1473 1473 1472 1472 1472 1472 1472 1472 1472 1472 1473 1473 1474 1474 1474 1474 1474 1474 1474 1474 1474
1484 1484 1483 1483 1483 1482 1482 1482 1481 1481 1481 1481 1482 1482 1482 1482 1482 1482 1482 1482 1482 1482 1481 1481 1481 1481 1481 1481 1481 1481 1480 1480 1480 1480 1479 1479 1479 1478 1477 1477 1476 1476 1475 1475 1474 1474 1473 1473 1472 1472 1471 1471 1470 1470 1470 1471 1471 1471 1471 1472 1472 1472 1473 1473 1473 1473 1473 1473 1473
1482 1482 1482 1482 1481 1481 1480 1480 1480 1480 1480 1480 1480 1481 1481 1481 1481 1481 1481 1481 1481 1481 1481 1481 1480 1480 1480 1480 1480 1480 1479 1479 1479 1479 1479 1478 1478 1477 1477 1476 1475 1475 1474 1474 1473 1473 1472 1472 1471 1471 1470 1470 1470 1469 1469 1469 1469 1470 1470 1470 1471 1471 1471 1471 1472 1472 1472 1472 1472
1480 1480 1480 1480 1480 1479 1479 1479 1479 1479 1479 1479 1479 1479 1480 1480 1480 1480 1480 1480 1480 1480 1480 1479 1479 1479 1479 1479 1479 1479 1479 1478 1478 1478 1478 1477 1477 1476 1476 1475 1475 1474 1474 1473 1473 1472 1471 1471 1470 1470 1469 1469 1469 1469 1469 1469 1469 1469 1469 1469 1469 1470 1470 1470 1470 1470 1471 1471 1471
1479 1479 1479 1479 1478 1478 1478 1477 1477 1477 1478 1478 1478 1479 1479 1479 1479 1479 1479 1479 1479 1479 1479 1479 1479 1479 1479 1479 1478 1478 1478 1477 1477 1477 1477 1476 1476 1475 1475 1475 1474 1474 1474 1473 1472 1471 1471 1470 1470 1469 1469 1469 1468 1468 1468 1468 1468 1468 1468 1468 1469 1469 1469 1469 1469 1470 1470 1470 1470
1478 1477 1477 1477 1477 1476 1476 1476 1476 1476 1476 1477 1477 1478 1478 1478 1478 1478 1478 1478 1478 1478 1478 1478 1478 1478 1478 1477 1477 1477 1477 1477 1476 1476 1476 1475 1475 1475 1474 1474 1474 1473 1473 1472 1472 1471 1470 1470 1469 1469 1468 1468 1468 1467 1467 1467 1467 1468 1468 1468 1468 1468 1468 1469 1469 1469 1469 1469 1469